Weather in Sosnovka

Russia / Arkhangel'skaya Oblast'     63°25′05″N   46°08′40″E
temp.,
°C
wind,
m/s
gust,
m/s
humid.,
%
clouds,
%
prec.,
mm/h
press.,
hPa
HPBL,
m
27 november, sat
sat2700:00−4wsw169897 0.5 993174
03:00−3wnw2798100 1.4 994365
06:00−6w41094100 0.6 997596
09:00−7wsw41194100 0.8 1001553
12:00−8wsw41092100 0.2 1005637
15:00−10wsw3895100 0.3 1007351
18:00−12sw269898 0.1 1010129
21:00−16sw11100100 0.2 10129
28 november, sun
sun2800:00−17e11100100 0.0 10129
03:00−14ene2497100 0.0 101180
06:00−11ene3794100 0.0 1009239
09:00−10ene41095100 0.5 1007334
12:00−9ene41094100 0.9 1005371
15:00−9ne4895100 1.7 1004359
18:00−9ne3895100 0.6 1003318
21:00−9nne3795100 1.3 1003295
29 november, mon
mon2900:00−10nne3795100 0.9 1002303
03:00−10n3795100 2.1 1004326
06:00−11nnw3893100 0.4 1006362
09:00−14nnw3895100 0.5 1010277
12:00−14nnw279574 0.0 1013252
15:00−19nnw2299100 0.0 101629
18:00−21n2496100 0.0 101757
21:00−19ne2792100 0.0 1017133
30 november, tue
tue3000:00−18e31091100 0.0 1016212
03:00−16e51592100 0.0 1012392
06:00−14e61989100 0.0 1007573
09:00−12e72088100 0.1 1001713
12:00−10e82092100 1.4 994856
15:00−9e71692100 2.6 988723
18:00−9ene71594100 1.5 983657
21:00−8ene61594100 3.9 979579
1 december, wed
wed100:00−5ene61595100 1.8 975543
03:00−2ene51296100 2.9 974583
06:00−1ene3798100 0.9 974522
09:00−2ne3698100 1.9 975307
12:00−2ne1498100 0.9 977230
15:00−5ssw4895100 1.4 981348
18:00−7ssw3895100 0.3 984346
21:00−8s269694 0.6 985273